Regional Weather Roundup
Issued by NWS

Home | Current Version | Previous Version | Graphics & Text | Print | Product List | Glossary Off
Versions: 1 2 3 4 5 6 7 8 9 10 11 12 13 14 15 16 17 18 19 20 21 22 23 24 25 26 27 28 29 30 31 32 33 34 35 36 37 38 39 40 41 42 43 44 45 46 47 48 49 50

000
ASUS43 KLSX 180759
RWRMO

WEATHER SUMMARY FOR MISSOURI
NATIONAL WEATHER SERVICE SPRINGFIELD MO
300 AM CDT FRI APR 18 2014

NOTE: "FAIR" INDICATES FEW OR NO CLOUDS BELOW 12,000 FEET WITH NO
       SIGNIFICANT WEATHER AND/OR OBSTRUCTIONS TO VISIBILITY.
       CURRENT SKY AND/OR WEATHER CONDITIONS ARE NOT AVAILABLE FOR
       CHILLICOTHE AND FARMINGTON.

MOZ001>031-035>038-043-044-053-054-180900-
...NORTHERN AND WESTERN MISSOURI...

CITY           SKY/WX    TMP DP  RH WIND       PRES   REMARKS
KANSAS CTY INT PTCLDY    34  29  82 SW3       30.28S
KANSAS C DTWN  CLEAR     39  35  86 NW3       30.28S
LEE`S SUMMIT   CLEAR     38  33  82 CALM      30.27F
ST JOSEPH      CLEAR     33  29  85 CALM      30.28F
KIRKSVILLE     CLEAR     31  29  92 NW3       30.29R

$$
MOZ066>068-077>081-088>096-101>105-180900-
...SOUTHWEST MISSOURI...

CITY           SKY/WX    TMP DP  RH WIND       PRES   REMARKS
SPRINGFIELD    CLOUDY    45  40  82 N5        30.24R
JOPLIN         MOCLDY    44  40  85 E3        30.25F

$$
MOZ032>034-039>042-045>050-055>058-069>072-180900-
...CENTRAL MISSOURI...

CITY           SKY/WX    TMP DP  RH WIND       PRES   REMARKS
COLUMBIA       CLOUDY    43  40  89 CALM      30.28R
JEFFERSON CITY CLOUDY    45  40  82 N3        30.29R
ROLLA          MOCLDY    41  37  86 N3        30.25S
SEDALIA        CLEAR     39  37  92 CALM      30.28S FOG
OSAGE BEACH    CLOUDY    43  37  81 CALM      30.28F

$$
MOZ051-052-059>065-180900-
...EAST CENTRAL MISSOURI...

CITY           SKY/WX    TMP DP  RH WIND       PRES   REMARKS
ST LOUIS INTL  MOCLDY    52  39  61 NE3       30.26F
SPIRIT OF STL  PTCLDY    45  42  89 W3        30.27R
ST CHARLES     PTCLDY    48  39  71 N3        30.26S

$$
MOZ072>076-082>087-097>100-106>115-180900-
...SOUTH CENTRAL AND SOUTHEAST MISSOURI...

CITY           SKY/WX    TMP DP  RH WIND       PRES   REMARKS
CAPE GIRARDEAU MOCLDY    47  45  93 CALM      30.24S
FARMINGTON     CLOUDY    48  39  71 CALM      30.26S
POPLAR BLUFF   MOCLDY    50  44  80 CALM      30.23R
WEST PLAINS    CLOUDY    52  38  58 CALM      30.24F

$$



USA.gov is the U.S. government's official web portal to all federal, state and local government web resources and services.